Regional Weather Roundup
Issued by NWS

Home | Current Version | Previous Version | Text Only | Print | Product List | Glossary Off
Versions: 1 2 3 4 5 6 7 8 9 10 11 12 13 14 15 16 17 18 19 20 21 22 23 24 25 26 27 28 29 30 31 32 33 34 35 36 37 38 39 40 41 42 43 44 45 46 47 48 49 50

000
ASUS45 KABQ 301001
RWRNM
NEW MEXICO REGIONAL WEATHER ROUNDUP
NATIONAL WEATHER SERVICE ALBUQUERQUE NM
400 AM MDT SUN AUG 30 2015

NOTE: "FAIR" MEANS FEW OR NO CLOUDS BELOW 12,000 FEET AGL WITH NO
       SIGNIFICANT WEATHER OR OBSTRUCTIONS TO VISION.

      THIS PRODUCT IS RELEASED AS TWO VERSIONS.  ONE VERSION NEAR
      THE TOP OF THE HOUR CONTAINING PRELIMINARY DATA FROM ALBUQUERQUE
      AND OTHER STATIONS.  A FINAL VERSION WITH ADDITIONAL DATA IS
      ISSUED ABOUT 10 MINUTES AFTER THE HOUR.

NMZ501-503-504-510>518-301100-
NORTHWEST PLATEAU/NORTHCENTRAL MOUNTAINS

CITY           SKY/WX    TMP DP  RH WIND       PRES   REMARKS
FARMINGTON     CLEAR     65  46  50 E7        30.19R
LOS ALAMOS     CLEAR     60  48  65 S6        30.35S
SANTA FE       CLEAR     59  50  72 E3        30.29F
TAOS           CLEAR     50  34  53 CALM      30.38S
ANGEL FIRE     FOG       37  36  98 CALM      30.45S VSB 1/2

$$
NMZ402-403-502-505>509-301100-
WESTCENTRAL MOUNTAINS/SOUTHWEST MOUNTAINS

CITY           SKY/WX    TMP DP  RH WIND       PRES   REMARKS
GALLUP         FAIR      61  47  59 CALM      30.28R
GRANTS         FAIR      52  49  87 S6        30.31S
SILVER CITY      N/A     63  57  82 N12       30.23F

$$
NMZ407-409-411-412-301100-
SOUTHERN DESERTS

CITY           SKY/WX    TMP DP  RH WIND       PRES   REMARKS
DEMING         FAIR      68  57  68 CALM      30.14F
LAS CRUCES     FAIR      67  55  64 S3        30.16S
HOLLOMAN AFB   CLEAR     65  58  78 N2        30.13R
ALAMOGORDO     CLEAR     64  55  72 NW5       30.14S
T OR C         FAIR      70  52  52 NW8       30.18R

$$
NMZ519>523-301100-
CENTRAL VALLEYS/CENTRAL HIGHLANDS

CITY           SKY/WX    TMP DP  RH WIND       PRES   REMARKS
ALBUQUERQUE    CLEAR     68  49  50 N6        30.23S
DOUBLE EAGLE   CLEAR     59  49  69 CALM      30.27S
CLINES CORNERS CLEAR     56  51  84 W7        30.33S
BELEN          FAIR      63  51  66 CALM      30.21S
SOCORRO        NOT AVBL

$$
NMZ524>526-539-540-301100-
SOUTHCENTRAL MOUNTAINS

CITY           SKY/WX    TMP DP  RH WIND       PRES   REMARKS
RUIDOSO        CLEAR     57  48  72 MISG      30.34F

$$
NMZ527>531-301100-
NORTHEAST HIGHLANDS/NORTHEAST PLAINS

CITY           SKY/WX    TMP DP  RH WIND       PRES   REMARKS
LAS VEGAS      CLEAR     54  48  80 S7        30.32F
RATON          CLEAR     53  49  86 N6        30.27S
CLAYTON        CLEAR     60  52  74 W9        30.18F

$$
NMZ532>537-301100-
EASTCENTRAL PLAINS

CITY           SKY/WX    TMP DP  RH WIND       PRES   REMARKS
TUCUMCARI      CLEAR     62  55  77 W6        30.14F
CANNON AFB     NOT AVBL
CLOVIS AIRPORT CLEAR     61  54  77 NW5       30.17F

$$
NMZ028-029-538-301100-
SOUTHEAST PLAINS

CITY           SKY/WX    TMP DP  RH WIND       PRES   REMARKS
ROSWELL        CLEAR     65  59  81 CALM      30.13S
ARTESIA        CLEAR     66  64  94 CALM      30.14R
CARLSBAD       CLEAR     67  52  58 S5        30.11
HOBBS            N/A     61  61 100 CALM      30.15S


$$



USA.gov is the U.S. government's official web portal to all federal, state and local government web resources and services.